| time (UTC) | temp F | wind direction | speed knots | gust knots | rain 1hr in | rain 24hr in | rain mn in | humidity % | barometer mb |
| 20260902113001 | 57 | 114 | 2.6 | 5.2 | 0.00 | 0.00 | 0.00 | 58 | 1024.3 |
| 20260902112557 | 57 | 108 | 2.6 | 5.2 | 0.00 | 0.00 | 0.00 | 59 | 1024.3 |
| 20260902112105 | 57 | 106 | 1.7 | 5.2 | 0.00 | 0.00 | 0.00 | 58 | 1024.2 |
| 20260902111601 | 57 | 101 | 2.6 | 7.0 | 0.00 | 0.00 | 0.00 | 57 | 1024.3 |
| 20260902111047 | 58 | 126 | 4.3 | 6.1 | 0.00 | 0.00 | 0.00 | 58 | 1024.3 |
| 20260902110557 | 58 | 89 | 1.7 | 6.1 | 0.00 | 0.00 | 0.00 | 57 | 1024.0 |
| 20260902105504 | 57 | 91 | 4.3 | 6.1 | 0.00 | 0.00 | 0.00 | 57 | 1023.9 |
| 20260902105059 | 57 | 112 | 3.5 | 6.1 | 0.00 | 0.00 | 0.00 | 58 | 1023.9 |
| 20260902104503 | 57 | 110 | 3.5 | 6.1 | 0.00 | 0.00 | 0.00 | 58 | 1024.0 |
| 20260902104101 | 57 | 103 | 4.3 | 6.1 | 0.00 | 0.00 | 0.00 | 58 | 1024.1 |
| 20260902103504 | 58 | 127 | 3.5 | 5.2 | 0.00 | 0.00 | 0.00 | 58 | 1024.1 |
| 20260902103116 | 58 | 117 | 3.5 | 5.2 | 0.00 | 0.00 | 0.00 | 58 | 1024.0 |
| 20260902102553 | 58 | 109 | 3.5 | 5.2 | 0.00 | 0.00 | 0.00 | 57 | 1023.9 |
| 20260902102059 | 59 | 115 | 2.6 | 5.2 | 0.00 | 0.00 | 0.00 | 57 | 1024.0 |
| 20260902101503 | 59 | 146 | 2.6 | 5.2 | 0.00 | 0.00 | 0.00 | 57 | 1024.0 |
| 20260902101009 | 59 | 137 | 2.6 | 4.3 | 0.00 | 0.00 | 0.00 | 56 | 1024.0 |
| 20260902100517 | 60 | 146 | 2.6 | 4.3 | 0.00 | 0.00 | 0.00 | 55 | 1023.9 |
| 20260902100126 | 60 | 131 | 2.6 | 5.2 | 0.00 | 0.00 | 0.00 | 54 | 1023.8 |
| 20260902095553 | 61 | 134 | 1.7 | 5.2 | 0.00 | 0.00 | 0.00 | 54 | 1023.8 |
| 20260902095101 | 61 | 107 | 2.6 | 5.2 | 0.00 | 0.00 | 0.00 | 52 | 1023.8 |
| 20260902094504 | 61 | 102 | 1.7 | 3.5 | 0.00 | 0.00 | 0.00 | 52 | 1023.7 |
| 20260902094101 | 61 | 106 | 2.6 | 3.5 | 0.00 | 0.00 | 0.00 | 52 | 1023.7 |
| 20260902093504 | 62 | 111 | 2.6 | 3.5 | 0.00 | 0.00 | 0.00 | 51 | 1023.8 |
| 20260902093114 | 62 | 97 | 1.7 | 3.5 | 0.00 | 0.00 | 0.00 | 51 | 1023.8 |
| 20260902092550 | 62 | 92 | 0.9 | 2.6 | 0.00 | 0.00 | 0.00 | 51 | 1023.7 |
| 20260902092058 | 62 | 102 | 1.7 | 3.5 | 0.00 | 0.00 | 0.00 | 50 | 1023.8 |
| 20260902091501 | 62 | 29 | 1.7 | 2.6 | 0.00 | 0.00 | 0.00 | 50 | 1023.8 |
| 20260902091009 | 62 | 29 | 0.9 | 3.5 | 0.00 | 0.00 | 0.00 | 50 | 1023.7 |
| 20260902090516 | 62 | 28 | 1.7 | 4.3 | 0.00 | 0.00 | 0.00 | 50 | 1023.7 |
| 20260902090028 | 62 | 34 | 2.6 | 3.5 | 0.00 | 0.00 | 0.00 | 52 | 1023.8 |
| 20260902085531 | 62 | 42 | 1.7 | 3.5 | 0.00 | 0.00 | 0.00 | 52 | 1023.8 |
| 20260902085041 | 62 | 38 | 1.7 | 3.5 | 0.00 | 0.00 | 0.00 | 54 | 1023.8 |
| 20260902084548 | 62 | 34 | 1.7 | 2.6 | 0.00 | 0.00 | 0.00 | 54 | 1023.8 |
| 20260902084058 | 62 | 34 | 0.9 | 1.7 | 0.00 | 0.00 | 0.00 | 54 | 1023.8 |
| 20260902083546 | 62 | 34 | 0.9 | 1.7 | 0.00 | 0.00 | 0.00 | 52 | 1023.8 |
| 20260902083057 | 62 | 34 | 0.9 | 0.9 | 0.00 | 0.00 | 0.00 | 50 | 1023.8 |
| 20260902082549 | 63 | 34 | 0.0 | 1.7 | 0.00 | 0.00 | 0.00 | 49 | 1023.9 |
| 20260902082037 | 63 | 34 | 0.9 | 1.7 | 0.00 | 0.00 | 0.00 | 50 | 1023.9 |
| 20260902081548 | 63 | 34 | 1.7 | 1.7 | 0.00 | 0.00 | 0.00 | 50 | 1023.9 |
| 20260902081053 | 63 | 23 | 0.0 | 1.7 | 0.00 | 0.00 | 0.00 | 51 | 1023.9 |
| 20260902080601 | 63 | 319 | 0.0 | 1.7 | 0.00 | 0.00 | 0.00 | 50 | 1024.0 |
| 20260902080055 | 63 | 212 | 0.0 | 1.7 | 0.00 | 0.00 | 0.00 | 49 | 1024.0 |
| 20260902075600 | 63 | 212 | 0.0 | 1.7 | 0.00 | 0.00 | 0.00 | 49 | 1024.0 |
| 20260902075005 | 63 | 246 | 0.0 | 2.6 | 0.00 | 0.00 | 0.00 | 48 | 1024.2 |
| 20260902074514 | 63 | 158 | 0.9 | 2.6 | 0.00 | 0.00 | 0.00 | 47 | 1024.1 |
| 20260902074003 | 63 | 30 | 0.0 | 2.6 | 0.00 | 0.00 | 0.00 | 46 | 1023.9 |
| 20260902073557 | 63 | 30 | 0.9 | 2.6 | 0.00 | 0.00 | 0.00 | 47 | 1023.9 |
| 20260902073001 | 62 | 30 | 0.9 | 1.7 | 0.00 | 0.00 | 0.00 | 47 | 1023.9 |
| 20260902072602 | 62 | 30 | 0.0 | 2.6 | 0.00 | 0.00 | 0.00 | 47 | 1023.9 |
| 20260902072002 | 62 | 30 | 0.9 | 2.6 | 0.00 | 0.00 | 0.00 | 48 | 1023.8 |
| 20260902071603 | 62 | 30 | 0.9 | 2.6 | 0.00 | 0.00 | 0.00 | 49 | 1023.8 |
| 20260902071005 | 62 | 13 | 0.9 | 1.7 | 0.00 | 0.00 | 0.00 | 51 | 1023.9 |
| 20260902070513 | 62 | 360 | 0.9 | 2.6 | 0.00 | 0.00 | 0.00 | 51 | 1023.9 |
| 20260902070104 | 62 | 360 | 0.9 | 2.6 | 0.00 | 0.00 | 0.00 | 51 | 1023.9 |
| 20260902065507 | 62 | 333 | 0.0 | 1.7 | 0.00 | 0.00 | 0.00 | 51 | 1023.9 |
| 20260902065015 | 63 | 325 | 0.0 | 5.2 | 0.00 | 0.00 | 0.00 | 51 | 1023.9 |
| 20260902064525 | 63 | 351 | 1.7 | 7.0 | 0.00 | 0.00 | 0.00 | 50 | 1023.9 |
| 20260902064032 | 63 | 333 | 2.6 | 7.0 | 0.00 | 0.00 | 0.00 | 50 | 1023.8 |
| 20260902063539 | 64 | 321 | 3.5 | 10.4 | 0.00 | 0.00 | 0.00 | 49 | 1023.9 |
| 20260902063047 | 65 | 281 | 1.7 | 10.4 | 0.00 | 0.00 | 0.00 | 49 | 1023.8 |
| 20260902062559 | 66 | 277 | 2.6 | 5.2 | 0.00 | 0.00 | 0.00 | 48 | 1023.8 |
| 20260902062046 | 66 | 125 | 1.7 | 2.6 | 0.00 | 0.00 | 0.00 | 46 | 1023.6 |
| 20260902061615 | 66 | 108 | 0.9 | 2.6 | 0.00 | 0.00 | 0.00 | 44 | 1023.5 |
| 20260902061104 | 67 | 140 | 0.9 | 2.6 | 0.00 | 0.00 | 0.00 | 43 | 1023.6 |
| 20260902060503 | 67 | 143 | 0.9 | 3.5 | 0.00 | 0.00 | 0.00 | 43 | 1023.6 |
| 20260902060059 | 67 | 131 | 1.7 | 3.5 | 0.00 | 0.00 | 0.00 | 42 | 1023.6 |
| 20260902055601 | 67 | 110 | 1.7 | 2.6 | 0.00 | 0.00 | 0.00 | 41 | 1023.6 |
| 20260902055006 | 67 | 103 | 1.7 | 2.6 | 0.00 | 0.00 | 0.00 | 41 | 1023.6 |
| 20260902054602 | 67 | 61 | 0.9 | 2.6 | 0.00 | 0.00 | 0.00 | 41 | 1023.6 |
| 20260902054005 | 68 | 39 | 0.0 | 1.7 | 0.00 | 0.00 | 0.00 | 42 | 1023.6 |
| 20260902053603 | 68 | 39 | 0.0 | 3.5 | 0.00 | 0.00 | 0.00 | 42 | 1023.6 |
| 20260902053007 | 67 | 60 | 1.7 | 4.3 | 0.00 | 0.00 | 0.00 | 40 | 1023.5 |
| 20260902052602 | 67 | 57 | 2.6 | 4.3 | 0.00 | 0.00 | 0.00 | 40 | 1023.6 |
| 20260902052058 | 67 | 55 | 1.7 | 4.3 | 0.00 | 0.00 | 0.00 | 42 | 1023.5 |
| 20260902051545 | 68 | 101 | 1.7 | 4.3 | 0.00 | 0.00 | 0.00 | 42 | 1023.5 |
| 20260902051053 | 68 | 57 | 0.9 | 3.5 | 0.00 | 0.00 | 0.00 | 41 | 1023.5 |
| 20260902050546 | 68 | 51 | 0.9 | 3.5 | 0.00 | 0.00 | 0.00 | 41 | 1023.5 |
| 20260902050054 | 68 | 28 | 1.7 | 3.5 | 0.00 | 0.00 | 0.00 | 41 | 1023.4 |
| 20260902045601 | 68 | 19 | 2.6 | 4.3 | 0.00 | 0.00 | 0.00 | 41 | 1023.3 |
| 20260902045004 | 68 | 30 | 2.6 | 4.3 | 0.00 | 0.00 | 0.00 | 41 | 1023.4 |
| 20260902044559 | 68 | 24 | 1.7 | 4.3 | 0.00 | 0.00 | 0.00 | 40 | 1023.4 |
| 20260902044002 | 69 | 21 | 1.7 | 4.3 | 0.00 | 0.00 | 0.00 | 40 | 1023.4 |
| 20260902043559 | 69 | 35 | 1.7 | 4.3 | 0.00 | 0.00 | 0.00 | 41 | 1023.3 |
| 20260902043052 | 69 | 19 | 1.7 | 4.3 | 0.00 | 0.00 | 0.00 | 40 | 1023.4 |
| 20260902042557 | 69 | 13 | 2.6 | 5.2 | 0.00 | 0.00 | 0.00 | 40 | 1023.4 |
| 20260902042050 | 69 | 24 | 2.6 | 5.2 | 0.00 | 0.00 | 0.00 | 40 | 1023.4 |
| 20260902041616 | 69 | 24 | 1.7 | 3.5 | 0.00 | 0.00 | 0.00 | 41 | 1023.3 |
| 20260902041105 | 69 | 22 | 1.7 | 3.5 | 0.00 | 0.00 | 0.00 | 40 | 1023.3 |
| 20260902040508 | 70 | 24 | 0.9 | 3.5 | 0.00 | 0.00 | 0.00 | 40 | 1023.2 |
| 20260902040001 | 70 | 19 | 1.7 | 3.5 | 0.00 | 0.00 | 0.00 | 40 | 1023.3 |
| 20260902035509 | 70 | 21 | 1.7 | 2.6 | 0.00 | 0.00 | 0.00 | 40 | 1023.2 |
| 20260902035105 | 70 | 24 | 1.7 | 2.6 | 0.00 | 0.00 | 0.00 | 40 | 1023.2 |
| 20260902034558 | 71 | 30 | 1.7 | 3.5 | 0.00 | 0.00 | 0.00 | 39 | 1023.2 |
| 20260902034001 | 71 | 17 | 1.7 | 2.6 | 0.00 | 0.00 | 0.00 | 39 | 1023.1 |
| 20260902033558 | 71 | 19 | 1.7 | 4.3 | 0.00 | 0.00 | 0.00 | 39 | 1023.1 |
| 20260902033051 | 72 | 30 | 1.7 | 4.3 | 0.00 | 0.00 | 0.00 | 39 | 1023.1 |
| 20260902032557 | 72 | 25 | 1.7 | 5.2 | 0.00 | 0.00 | 0.00 | 39 | 1023.1 |
| 20260902032050 | 72 | 33 | 2.6 | 5.2 | 0.00 | 0.00 | 0.00 | 39 | 1023.0 |
| 20260902031614 | 72 | 36 | 1.7 | 3.5 | 0.00 | 0.00 | 0.00 | 42 | 1023.0 |
| 20260902031001 | 72 | 28 | 1.7 | 3.5 | 0.00 | 0.00 | 0.00 | 42 | 1023.0 |
| 20260902030508 | 73 | 347 | 0.0 | 1.7 | 0.00 | 0.00 | 0.00 | 41 | 1022.8 |
| 20260902030103 | 73 | 347 | 0.0 | 1.7 | 0.00 | 0.00 | 0.00 | 41 | 1022.9 |
| 20260902025507 | 74 | 347 | 0.0 | 1.7 | 0.00 | 0.00 | 0.00 | 42 | 1022.9 |
| 20260902025014 | 74 | 347 | 0.9 | 1.7 | 0.00 | 0.00 | 0.00 | 43 | 1022.8 |
| 20260902024533 | 74 | 255 | 0.0 | 1.7 | 0.00 | 0.00 | 0.00 | 40 | 1022.7 |
| 20260902024030 | 74 | 255 | 0.0 | 1.7 | 0.00 | 0.00 | 0.00 | 39 | 1022.7 |
| 20260902023538 | 75 | 255 | 0.0 | 1.7 | 0.00 | 0.00 | 0.00 | 40 | 1022.7 |
| 20260902023059 | 75 | 255 | 0.0 | 1.7 | 0.00 | 0.00 | 0.00 | 39 | 1022.6 |
| 20260902022553 | 75 | 255 | 0.0 | 1.7 | 0.00 | 0.00 | 0.00 | 39 | 1022.6 |
| 20260902022102 | 75 | 255 | 0.0 | 1.7 | 0.00 | 0.00 | 0.00 | 39 | 1022.6 |
| 20260902021513 | 75 | 255 | 0.0 | 2.6 | 0.00 | 0.00 | 0.00 | 39 | 1022.5 |
| 20260902021102 | 76 | 256 | 0.9 | 2.6 | 0.00 | 0.00 | 0.00 | 38 | 1022.5 |
| 20260902020502 | 76 | 240 | 0.0 | 1.7 | 0.00 | 0.00 | 0.00 | 38 | 1022.5 |
| 20260902020051 | 77 | 231 | 0.0 | 1.7 | 0.00 | 0.00 | 0.00 | 38 | 1022.5 |
| 20260902015558 | 77 | 216 | 0.0 | 1.7 | 0.00 | 0.00 | 0.00 | 38 | 1022.5 |
| 20260902015002 | 77 | 226 | 0.0 | 1.7 | 0.00 | 0.00 | 0.00 | 37 | 1022.3 |
| 20260902014556 | 78 | 226 | 0.0 | 1.7 | 0.00 | 0.00 | 0.00 | 36 | 1022.4 |
| 20260902014105 | 78 | 212 | 0.0 | 1.7 | 0.00 | 0.00 | 0.00 | 35 | 1022.3 |
| 20260902013602 | 78 | 225 | 0.0 | 1.7 | 0.00 | 0.00 | 0.00 | 35 | 1022.3 |
| 20260902013105 | 79 | 252 | 0.0 | 1.7 | 0.00 | 0.00 | 0.00 | 34 | 1022.3 |
| 20260902012557 | 79 | 252 | 0.9 | 3.5 | 0.00 | 0.00 | 0.00 | 34 | 1022.4 |
| 20260902012001 | 79 | 277 | 0.9 | 3.5 | 0.00 | 0.00 | 0.00 | 33 | 1022.3 |
| 20260902011509 | 79 | 285 | 1.7 | 4.3 | 0.00 | 0.00 | 0.00 | 33 | 1022.3 |
| 20260902011103 | 80 | 296 | 1.7 | 6.1 | 0.00 | 0.00 | 0.00 | 32 | 1022.4 |
| 20260902010507 | 80 | 286 | 2.6 | 6.1 | 0.00 | 0.00 | 0.00 | 32 | 1022.4 |
| 20260902010109 | 80 | 259 | 0.9 | 3.5 | 0.00 | 0.00 | 0.00 | 32 | 1022.4 |
| 20260902005553 | 80 | 258 | 0.9 | 2.6 | 0.00 | 0.00 | 0.00 | 32 | 1022.3 |
| 20260902005101 | 81 | 312 | 0.9 | 3.5 | 0.00 | 0.00 | 0.00 | 32 | 1022.4 |
| 20260902004507 | 81 | 263 | 0.9 | 6.1 | 0.00 | 0.00 | 0.00 | 32 | 1022.4 |
| 20260902004015 | 81 | 217 | 1.7 | 5.2 | 0.00 | 0.00 | 0.00 | 31 | 1022.4 |
| 20260902003607 | 81 | 289 | 0.9 | 5.2 | 0.00 | 0.00 | 0.00 | 31 | 1022.5 |
| 20260902003009 | 82 | 278 | 1.7 | 7.0 | 0.00 | 0.00 | 0.00 | 31 | 1022.5 |
| 20260902002604 | 82 | 195 | 1.7 | 4.3 | 0.00 | 0.00 | 0.00 | 31 | 1022.5 |
| 20260902002055 | 81 | 248 | 1.7 | 5.2 | 0.00 | 0.00 | 0.00 | 31 | 1022.4 |
| 20260902001612 | 81 | 251 | 1.7 | 5.2 | 0.00 | 0.00 | 0.00 | 32 | 1022.5 |
| 20260902001054 | 81 | 306 | 0.9 | 7.8 | 0.00 | 0.00 | 0.00 | 31 | 1022.5 |
| 20260902000605 | 81 | 309 | 5.2 | 7.8 | 0.00 | 0.00 | 0.00 | 31 | 1022.6 |
| 20260902000055 | 82 | 297 | 5.2 | 8.7 | 0.00 | 0.00 | 0.00 | 32 | 1022.6 |
| 20260901235545 | 82 | 268 | 3.5 | 8.7 | 0.00 | 0.00 | 0.00 | 31 | 1022.6 |
| 20260901235053 | 82 | 229 | 4.3 | 7.8 | 0.00 | 0.00 | 0.00 | 31 | 1022.7 |
| 20260901234607 | 82 | 301 | 3.5 | 10.4 | 0.00 | 0.00 | 0.00 | 30 | 1022.7 |
| 20260901234004 | 83 | 309 | 4.3 | 10.4 | 0.00 | 0.00 | 0.00 | 31 | 1022.7 |
| 20260901233602 | 83 | 177 | 0.9 | 7.0 | 0.00 | 0.00 | 0.00 | 31 | 1022.8 |
| 20260901233010 | 83 | 178 | 1.7 | 9.6 | 0.00 | 0.00 | 0.00 | 30 | 1022.8 |
| 20260901232604 | 82 | 254 | 3.5 | 9.6 | 0.00 | 0.00 | 0.00 | 31 | 1022.8 |
| 20260901232052 | 83 | 292 | 3.5 | 9.6 | 0.00 | 0.00 | 0.00 | 31 | 1022.8 |
| 20260901231605 | 83 | 280 | 3.5 | 9.6 | 0.00 | 0.00 | 0.00 | 31 | 1022.9 |
| 20260901231055 | 83 | 298 | 1.7 | 7.8 | 0.00 | 0.00 | 0.00 | 30 | 1022.8 |
| 20260901230542 | 83 | 155 | 2.6 | 12.2 | 0.00 | 0.00 | 0.00 | 29 | 1022.8 |
| 20260901230047 | 83 | 324 | 2.6 | 12.2 | 0.00 | 0.00 | 0.00 | 29 | 1022.9 |
| 20260901225556 | 83 | 266 | 1.7 | 9.6 | 0.00 | 0.00 | 0.00 | 30 | 1022.8 |
| 20260901225103 | 83 | 215 | 3.5 | 9.6 | 0.00 | 0.00 | 0.00 | 30 | 1022.9 |
| 20260901224554 | 83 | 304 | 2.6 | 7.0 | 0.00 | 0.00 | 0.00 | 30 | 1022.9 |
| 20260901224101 | 83 | 290 | 1.7 | 7.8 | 0.00 | 0.00 | 0.00 | 30 | 1022.9 |
| 20260901223555 | 83 | 250 | 2.6 | 7.8 | 0.00 | 0.00 | 0.00 | 29 | 1022.9 |
| 20260901223045 | 83 | 287 | 1.7 | 7.0 | 0.00 | 0.00 | 0.00 | 31 | 1023.0 |
| 20260901222552 | 83 | 267 | 4.3 | 7.8 | 0.00 | 0.00 | 0.00 | 30 | 1023.0 |
| 20260901222046 | 84 | 292 | 2.6 | 7.0 | 0.00 | 0.00 | 0.00 | 31 | 1023.0 |
| 20260901221554 | 84 | 171 | 2.6 | 7.8 | 0.00 | 0.00 | 0.00 | 31 | 1023.0 |
| 20260901221100 | 83 | 234 | 4.3 | 8.7 | 0.00 | 0.00 | 0.00 | 31 | 1023.1 |
| 20260901220504 | 83 | 292 | 2.6 | 7.0 | 0.00 | 0.00 | 0.00 | 32 | 1023.2 |
| 20260901220053 | 82 | 256 | 3.5 | 7.0 | 0.00 | 0.00 | 0.00 | 32 | 1023.1 |
| 20260901215601 | 82 | 280 | 3.5 | 12.2 | 0.00 | 0.00 | 0.00 | 32 | 1023.2 |
| 20260901215053 | 82 | 194 | 3.5 | 12.2 | 0.00 | 0.00 | 0.00 | 32 | 1023.2 |
| 20260901214608 | 82 | 292 | 5.2 | 8.7 | 0.00 | 0.00 | 0.00 | 31 | 1023.2 |
| 20260901214053 | 82 | 222 | 0.9 | 7.8 | 0.00 | 0.00 | 0.00 | 31 | 1023.4 |
| 20260901213601 | 81 | 321 | 1.7 | 7.8 | 0.00 | 0.00 | 0.00 | 32 | 1023.3 |
| 20260901213003 | 81 | 257 | 4.3 | 7.8 | 0.00 | 0.00 | 0.00 | 32 | 1023.4 |
| 20260901212559 | 82 | 271 | 0.0 | 10.4 | 0.00 | 0.00 | 0.00 | 33 | 1023.4 |
| 20260901212001 | 82 | 259 | 5.2 | 11.3 | 0.00 | 0.00 | 0.00 | 34 | 1023.5 |
| 20260901211558 | 82 | 283 | 5.2 | 11.3 | 0.00 | 0.00 | 0.00 | 34 | 1023.6 |
| 20260901211050 | 82 | 281 | 2.6 | 5.2 | 0.00 | 0.00 | 0.00 | 34 | 1023.6 |
| 20260901210555 | 82 | 159 | 4.3 | 8.7 | 0.00 | 0.00 | 0.00 | 33 | 1023.8 |
| 20260901210108 | 82 | 219 | 2.6 | 8.7 | 0.00 | 0.00 | 0.00 | 33 | 1023.8 |
| 20260901205508 | 82 | 258 | 1.7 | 8.7 | 0.00 | 0.00 | 0.00 | 31 | 1023.9 |
| 20260901205103 | 82 | 242 | 2.6 | 7.0 | 0.00 | 0.00 | 0.00 | 31 | 1023.9 |
| 20260901204502 | 81 | 209 | 2.6 | 7.0 | 0.00 | 0.00 | 0.00 | 32 | 1024.0 |
| 20260901204100 | 80 | 313 | 0.9 | 7.0 | 0.00 | 0.00 | 0.00 | 34 | 1024.0 |
| 20260901203553 | 80 | 252 | 2.6 | 7.0 | 0.00 | 0.00 | 0.00 | 35 | 1024.0 |
| 20260901203119 | 80 | 329 | 2.6 | 7.0 | 0.00 | 0.00 | 0.00 | 35 | 1024.2 |
| 20260901202550 | 80 | 267 | 0.9 | 7.0 | 0.00 | 0.00 | 0.00 | 35 | 1024.3 |
| 20260901202044 | 80 | 286 | 1.7 | 7.0 | 0.00 | 0.00 | 0.00 | 36 | 1024.3 |
| 20260901201556 | 80 | 317 | 4.3 | 7.0 | 0.00 | 0.00 | 0.00 | 35 | 1024.4 |
| 20260901201042 | 80 | 194 | 1.7 | 9.6 | 0.00 | 0.00 | 0.00 | 37 | 1024.5 |
| 20260901200550 | 80 | 269 | 3.5 | 9.6 | 0.00 | 0.00 | 0.00 | 37 | 1024.6 |
| 20260901200057 | 80 | 213 | 2.6 | 8.7 | 0.00 | 0.00 | 0.00 | 38 | 1024.5 |
| 20260901195605 | 80 | 277 | 0.0 | 3.5 | 0.00 | 0.00 | 0.00 | 39 | 1024.6 |
| 20260901195058 | 79 | 254 | 1.7 | 4.3 | 0.00 | 0.00 | 0.00 | 38 | 1024.7 |
| 20260901194607 | 79 | 44 | 0.9 | 6.1 | 0.00 | 0.00 | 0.00 | 38 | 1024.8 |
| 20260901194057 | 79 | 307 | 0.9 | 6.1 | 0.00 | 0.00 | 0.00 | 37 | 1024.8 |
| 20260901193549 | 79 | 249 | 1.7 | 7.0 | 0.00 | 0.00 | 0.00 | 38 | 1024.8 |
| 20260901193102 | 79 | 223 | 1.7 | 7.0 | 0.00 | 0.00 | 0.00 | 38 | 1024.8 |
| 20260901192606 | 79 | 225 | 1.7 | 5.2 | 0.00 | 0.00 | 0.00 | 40 | 1024.8 |
| 20260901192008 | 78 | 225 | 1.7 | 7.0 | 0.00 | 0.00 | 0.00 | 42 | 1025.0 |
| 20260901191516 | 77 | 279 | 2.6 | 4.3 | 0.00 | 0.00 | 0.00 | 43 | 1025.0 |
| 20260901191024 | 77 | 288 | 1.7 | 5.2 | 0.00 | 0.00 | 0.00 | 42 | 1025.1 |
| 20260901190532 | 77 | 248 | 2.6 | 6.1 | 0.00 | 0.00 | 0.00 | 42 | 1025.1 |
| 20260901190039 | 77 | 289 | 0.9 | 7.8 | 0.00 | 0.00 | 0.00 | 44 | 1025.0 |
| 20260901185547 | 77 | 288 | 2.6 | 7.8 | 0.00 | 0.04 | 0.00 | 43 | 1025.1 |
| 20260901185054 | 77 | 204 | 1.7 | 7.0 | 0.00 | 0.04 | 0.00 | 46 | 1025.2 |
| 20260901184603 | 77 | 298 | 3.5 | 7.0 | 0.00 | 0.04 | 0.00 | 43 | 1025.2 |
| 20260901184003 | 77 | 333 | 0.9 | 7.8 | 0.00 | 0.04 | 0.00 | 44 | 1025.3 |
| 20260901183559 | 77 | 308 | 0.9 | 6.1 | 0.00 | 0.04 | 0.00 | 45 | 1025.4 |
| 20260901183000 | 76 | 252 | 0.9 | 3.5 | 0.00 | 0.04 | 0.00 | 47 | 1025.5 |
| 20260901182600 | 77 | 347 | 0.9 | 7.0 | 0.00 | 0.04 | 0.00 | 47 | 1025.5 |
| 20260901182003 | 77 | 236 | 2.6 | 7.0 | 0.00 | 0.04 | 0.00 | 48 | 1025.4 |
| 20260901181559 | 76 | 210 | 0.9 | 7.0 | 0.00 | 0.04 | 0.00 | 46 | 1025.4 |
| 20260901181003 | 76 | 282 | 3.5 | 6.1 | 0.00 | 0.04 | 0.00 | 47 | 1025.5 |
| 20260901180513 | 76 | 302 | 0.9 | 4.3 | 0.00 | 0.04 | 0.00 | 45 | 1025.5 |
| 20260901180039 | 76 | 155 | 1.7 | 7.0 | 0.00 | 0.04 | 0.00 | 46 | 1025.4 |
| 20260901175545 | 75 | 247 | 2.6 | 7.0 | 0.00 | 0.05 | 0.00 | 45 | 1025.5 |
| 20260901175053 | 75 | 355 | 1.7 | 7.0 | 0.00 | 0.05 | 0.00 | 46 | 1025.4 |
| 20260901174604 | 75 | 291 | 3.5 | 7.0 | 0.00 | 0.05 | 0.00 | 45 | 1025.5 |
| 20260901174006 | 75 | 254 | 1.7 | 5.2 | 0.00 | 0.05 | 0.00 | 47 | 1025.4 |
| 20260901173559 | 75 | 34 | 0.9 | 3.5 | 0.00 | 0.05 | 0.00 | 46 | 1025.5 |
| 20260901173001 | 76 | 261 | 1.7 | 3.5 | 0.00 | 0.05 | 0.00 | 45 | 1025.6 |
| 20260901172559 | 76 | 190 | 0.9 | 5.2 | 0.00 | 0.05 | 0.00 | 46 | 1025.5 |
| 20260901172052 | 75 | 241 | 1.7 | 5.2 | 0.00 | 0.05 | 0.00 | 49 | 1025.5 |
| 20260901171547 | 75 | 242 | 0.9 | 3.5 | 0.00 | 0.05 | 0.00 | 48 | 1025.5 |
| 20260901171052 | 75 | 107 | 1.7 | 3.5 | 0.00 | 0.05 | 0.00 | 48 | 1025.6 |
| 20260901170602 | 74 | 162 | 1.7 | 4.3 | 0.00 | 0.05 | 0.00 | 50 | 1025.5 |
| 20260901170002 | 74 | 192 | 0.9 | 4.3 | 0.00 | 0.05 | 0.00 | 53 | 1025.5 |
| 20260901165601 | 73 | 123 | 0.9 | 3.5 | 0.00 | 0.05 | 0.00 | 51 | 1025.5 |
| 20260901165002 | 73 | 116 | 0.9 | 6.1 | 0.00 | 0.05 | 0.00 | 49 | 1025.5 |
| 20260901164604 | 72 | 128 | 1.7 | 6.1 | 0.00 | 0.05 | 0.00 | 51 | 1025.5 |
| 20260901164002 | 72 | 107 | 0.9 | 3.5 | 0.00 | 0.05 | 0.00 | 51 | 1025.6 |
| 20260901163559 | 71 | 159 | 0.9 | 5.2 | 0.00 | 0.05 | 0.00 | 53 | 1025.6 |
| 20260901163049 | 71 | 24 | 2.6 | 5.2 | 0.00 | 0.05 | 0.00 | 54 | 1025.6 |
| 20260901162557 | 71 | 12 | 1.7 | 5.2 | 0.00 | 0.05 | 0.00 | 54 | 1025.5 |
| 20260901162052 | 71 | 76 | 1.7 | 6.1 | 0.00 | 0.05 | 0.00 | 55 | 1025.6 |
| 20260901161559 | 70 | 84 | 0.0 | 6.1 | 0.00 | 0.05 | 0.00 | 56 | 1025.4 |
| 20260901161050 | 69 | 88 | 2.6 | 5.2 | 0.00 | 0.05 | 0.00 | 60 | 1025.4 |
| 20260901160540 | 69 | 104 | 0.9 | 4.3 | 0.00 | 0.05 | 0.00 | 59 | 1025.5 |
| 20260901160055 | 68 | 65 | 1.7 | 4.3 | 0.00 | 0.05 | 0.00 | 57 | 1025.5 |
| 20260901155557 | 68 | 54 | 1.7 | 5.2 | 0.00 | 0.05 | 0.00 | 59 | 1025.5 |
| 20260901155105 | 68 | 40 | 2.6 | 5.2 | 0.00 | 0.05 | 0.00 | 59 | 1025.6 |
| 20260901154559 | 67 | 105 | 1.7 | 7.0 | 0.00 | 0.05 | 0.00 | 59 | 1025.7 |
| 20260901154102 | 67 | 50 | 2.6 | 7.0 | 0.00 | 0.05 | 0.00 | 58 | 1025.7 |
| 20260901153554 | 67 | 90 | 0.9 | 6.1 | 0.00 | 0.05 | 0.00 | 61 | 1025.7 |
| 20260901153119 | 67 | 77 | 1.7 | 5.2 | 0.00 | 0.05 | 0.00 | 60 | 1025.7 |
| 20260901152555 | 66 | 126 | 2.6 | 7.0 | 0.00 | 0.05 | 0.00 | 63 | 1025.6 |
| 20260901152050 | 66 | 118 | 3.5 | 7.0 | 0.00 | 0.05 | 0.00 | 63 | 1025.6 |
| 20260901151538 | 65 | 103 | 0.0 | 7.0 | 0.00 | 0.05 | 0.00 | 67 | 1025.6 |
| 20260901151046 | 65 | 130 | 4.3 | 7.0 | 0.00 | 0.05 | 0.00 | 67 | 1025.5 |
| 20260901150538 | 65 | 119 | 4.3 | 7.0 | 0.00 | 0.05 | 0.00 | 67 | 1025.4 |
| 20260901150047 | 65 | 138 | 2.6 | 6.1 | 0.00 | 0.05 | 0.00 | 67 | 1025.5 |
| 20260901145555 | 65 | 88 | 3.5 | 6.1 | 0.00 | 0.05 | 0.00 | 67 | 1025.5 |
| 20260901145103 | 65 | 130 | 3.5 | 5.2 | 0.00 | 0.05 | 0.00 | 64 | 1025.4 |
| 20260901144554 | 65 | 94 | 2.6 | 5.2 | 0.00 | 0.05 | 0.00 | 65 | 1025.4 |
| 20260901144101 | 64 | 93 | 0.9 | 4.3 | 0.00 | 0.05 | 0.00 | 65 | 1025.4 |
| 20260901143554 | 63 | 33 | 1.7 | 3.5 | 0.00 | 0.05 | 0.00 | 67 | 1025.5 |
| 20260901143046 | 63 | 32 | 1.7 | 3.5 | 0.00 | 0.05 | 0.00 | 67 | 1025.5 |
| 20260901142555 | 63 | 46 | 1.7 | 4.3 | 0.00 | 0.05 | 0.00 | 68 | 1025.4 |
| 20260901142047 | 62 | 63 | 1.7 | 3.5 | 0.00 | 0.05 | 0.00 | 69 | 1025.4 |
| 20260901141554 | 62 | 84 | 1.7 | 3.5 | 0.00 | 0.05 | 0.00 | 71 | 1025.6 |
| 20260901141105 | 61 | 105 | 0.9 | 3.5 | 0.00 | 0.05 | 0.00 | 72 | 1025.5 |
| 20260901140505 | 61 | 49 | 0.9 | 4.3 | 0.00 | 0.05 | 0.00 | 73 | 1025.4 |
| 20260901140011 | 60 | 80 | 0.9 | 5.2 | 0.00 | 0.05 | 0.00 | 74 | 1025.5 |
| 20260901135530 | 59 | 111 | 0.9 | 3.5 | 0.00 | 0.05 | 0.00 | 75 | 1025.5 |
| 20260901135043 | 59 | 98 | 0.0 | 3.5 | 0.00 | 0.05 | 0.00 | 77 | 1025.5 |
| 20260901134552 | 58 | 74 | 0.9 | 3.5 | 0.00 | 0.05 | 0.00 | 77 | 1025.5 |
| 20260901134059 | 58 | 57 | 0.9 | 3.5 | 0.00 | 0.05 | 0.00 | 78 | 1025.4 |
| 20260901133513 | 57 | 46 | 0.9 | 4.3 | 0.00 | 0.05 | 0.00 | 80 | 1025.3 |
| 20260901133027 | 57 | 53 | 1.7 | 4.3 | 0.00 | 0.05 | 0.00 | 81 | 1025.3 |
| 20260901132537 | 56 | 38 | 1.7 | 4.3 | 0.00 | 0.05 | 0.00 | 82 | 1025.2 |
| 20260901132012 | 56 | 40 | 0.9 | 3.5 | 0.00 | 0.05 | 0.00 | 84 | 1025.1 |
| 20260901131531 | 55 | 82 | 1.7 | 3.5 | 0.00 | 0.05 | 0.00 | 84 | 1025.1 |
| 20260901131049 | 55 | 77 | 1.7 | 4.3 | 0.00 | 0.05 | 0.00 | 85 | 1025.1 |
| 20260901130559 | 55 | 94 | 1.7 | 4.3 | 0.00 | 0.05 | 0.00 | 85 | 1025.1 |
| 20260901130502 | 55 | 85 | 1.7 | 4.3 | 0.00 | 0.05 | 0.00 | 84 | 1025.1 |
| 20260901130015 | 55 | 77 | 2.6 | 4.3 | 0.00 | 0.05 | 0.00 | 84 | 1025.2 |
| 20260901125529 | 55 | 77 | 2.6 | 4.3 | 0.00 | 0.05 | 0.00 | 84 | 1025.1 |
| 20260901125052 | 55 | 75 | 1.7 | 5.2 | 0.00 | 0.05 | 0.00 | 84 | 1025.0 |
| 20260901124502 | 56 | 111 | 2.6 | 5.2 | 0.00 | 0.05 | 0.00 | 83 | 1024.9 |
| 20260901124014 | 56 | 119 | 1.7 | 3.5 | 0.00 | 0.05 | 0.00 | 83 | 1024.8 |
| 20260901123525 | 56 | 103 | 1.7 | 5.2 | 0.00 | 0.05 | 0.00 | 82 | 1024.9 |
| 20260901123046 | 56 | 102 | 1.7 | 5.2 | 0.00 | 0.05 | 0.00 | 82 | 1024.8 |
| 20260901122503 | 56 | 105 | 2.6 | 5.2 | 0.00 | 0.05 | 0.00 | 81 | 1024.7 |
| 20260901122017 | 56 | 74 | 2.6 | 8.7 | 0.00 | 0.05 | 0.00 | 81 | 1024.7 |
| 20260901121540 | 56 | 63 | 3.5 | 8.7 | 0.00 | 0.05 | 0.00 | 82 | 1024.7 |
| 20260901121052 | 56 | 81 | 2.6 | 5.2 | 0.00 | 0.05 | 0.00 | 82 | 1024.7 |
| 20260901120507 | 56 | 85 | 2.6 | 7.0 | 0.00 | 0.05 | 0.00 | 83 | 1024.7 |
| 20260901120019 | 56 | 52 | 2.6 | 7.0 | 0.00 | 0.05 | 0.00 | 83 | 1024.7 |
| 20260901115537 | 55 | 47 | 2.6 | 4.3 | 0.00 | 0.05 | 0.00 | 85 | 1024.8 |
| 20260901115051 | 55 | 67 | 2.6 | 4.3 | 0.00 | 0.05 | 0.00 | 86 | 1024.7 |
| 20260901114558 | 55 | 38 | 1.7 | 2.6 | 0.00 | 0.05 | 0.00 | 86 | 1024.8 |
| 20260901114009 | 55 | 40 | 1.7 | 4.3 | 0.00 | 0.05 | 0.00 | 86 | 1024.7 |
| 20260901113517 | 56 | 38 | 1.7 | 4.3 | 0.00 | 0.05 | 0.00 | 86 | 1024.7 |